Flag for Cameroon Weather past 2 weeks in Bamenda, Cameroon

Now
75 °F

Drizzle. More clouds than sun.


Feels Like: 74 °F
Forecast: 61 / 75 °F
Wind: No wind

Location: Douala Obs.

Current Time: Jul 25, 2014 at 5:18:57 PM

Latest Report: Jul 25, 2014 at 5:00 PM


Visibility: 2 mi

Pressure: 29.95 "Hg

Humidity: 94%

Dew point: 73 °F

Location of BamendaLocation

Historic Weather in Bamenda — Graph

°F

Bamenda temperature yesterday

Maximum temperature yesterday: 77 °F (at 5:00 PM)
Minimum temperature yesterday: 73 °F (at 8:00 AM)
Average temperature yesterday: 75 °F

Past Weeks' High & Low Weather Summary

 TemperatureHumidityPressure
High84 °F (Jul 10, 4:00 PM)100% (Jul 11, 2:00 AM)30.04 "Hg (Jul 11, 2:00 AM)
Low72 °F (Jul 15, 11:00 AM)70% (Jul 12, 4:00 PM)29.86 "Hg (Jul 14, 6:00 PM)
Average77 °F91%29.97 "Hg
* Reported Jul 10 4:00 PM — Jul 25 4:00 PM, Bamenda, Weather by CustomWeather, © 2014

Note: Actual official high and low records may vary slightly from our data, if they occured in-between our weather recording intervals... More about our weather records

Advertising

Bamenda weather history for previous 24 hours

 ConditionsComfort  
Time TempWeatherWind HumidityBarometerVisibility
4:00 PM
Jul 25
75 °FDrizzle. More clouds than sun.No wind94%29.95 "Hg2 mi
3:00 PM75 °FDrizzle. More clouds than sun.No wind94%29.98 "Hg4 mi
2:00 PM75 °FDrizzle. More clouds than sun.No wind94%29.98 "Hg2 mi
1:00 PM75 °FDrizzle. Cloudy.No wind94%30.01 "Hg1 mi
12:00 PM73 °FDrizzle. Fog.No wind100%30.01 "Hg1 mi
11:00 AM75 °FDrizzle. Fog.No wind94%30.01 "Hg1 mi
10:00 AM75 °FDrizzle. Fog.No wind94%30.01 "Hg1 mi
9:00 AM73 °FDrizzle. Fog.No wind100%30.01 "Hg1 mi
8:00 AM73 °FFog.No wind100%30.01 "Hg1 mi
7:00 AM73 °FDrizzle. Cloudy.No wind100%29.98 "Hg1 mi
6:00 AM73 °FPassing clouds.No wind100%29.98 "Hg2 mi
5:00 AM73 °FPassing clouds.No wind100%29.95 "Hg4 mi
4:00 AM73 °FMostly cloudy.No wind100%29.95 "Hg4 mi
3:00 AM73 °FFog.No wind100%29.95 "Hg2 mi
2:00 AM73 °FFog.No wind100%30.01 "Hg2 mi
1:00 AM73 °FMostly cloudy.No wind100%30.01 "Hg5 mi
12:00 AM73 °FMostly cloudy.No wind100%30.01 "Hg5 mi
11:00 PM
Jul 24
75 °FPassing clouds.No wind94%30.01 "Hg4 mi
10:00 PM75 °FDrizzle. Mostly cloudy.No wind94%30.01 "Hg4 mi
9:00 PM75 °FPassing clouds.No wind94%29.98 "Hg4 mi
8:00 PM75 °FDrizzle. Mostly cloudy.5 mph94%29.98 "Hg1 mi
7:00 PM75 °FDrizzle. Mostly cloudy.2 mph94%29.95 "Hg2 mi
6:00 PM75 °FDrizzle. Cloudy.7 mph94%29.95 "Hg4 mi
5:00 PM77 °FThunderstorms. Cloudy.7 mph89%29.92 "Hg4 mi
Weather by CustomWeather, © 2014

See weather overviewHow to use our weather pages